• In Hungary
  • List of Countries
  • For 7 days
  • Water Temperature
  • Satellite Maps
  • Weather Map
  • News
  • Weather Widgets
  • user-avatar
    Login

    Hourly Weather Tinchlik

    Today, 22 October, Monday

    Time Temperature Precipitation Wind Pressure Humidity
    00:00 +15°C° 0 mm 2 mps 731 mmHg 27%
    01:00 +15°C° 0 mm 2 mps 731 mmHg 28%
    02:00 +15°C° 0 mm 2 mps 731 mmHg 28%
    03:00 +15°C° 0 mm 2 mps 730 mmHg 28%
    04:00 +14°C° 0 mm 2 mps 730 mmHg 29%
    05:00 +15°C° 0 mm 2 mps 731 mmHg 29%
    06:00 +15°C° 0 mm 2 mps 731 mmHg 28%
    07:00 +15°C° 0 mm 2 mps 731 mmHg 27%
    08:00 +19°C° 0 mm 1 mps 731 mmHg 24%
    09:00 +21°C° 0 mm 1 mps 731 mmHg 20%
    10:00 +21°C° 0 mm 0 mps 731 mmHg 17%
    11:00 +24°C° 0 mm 1 mps 731 mmHg 16%
    12:00 +25°C° 0 mm 1 mps 731 mmHg 15%
    13:00 +25°C° 0 mm 1 mps 730 mmHg 14%
    14:00 +25°C° 0 mm 1 mps 730 mmHg 15%
    15:00 +25°C° 0 mm 1 mps 730 mmHg 15%
    16:00 +25°C° 0 mm 2 mps 730 mmHg 15%
    17:00 +23°C° 0 mm 2 mps 730 mmHg 17%
    18:00 +21°C° 0 mm 2 mps 730 mmHg 19%
    19:00 +19°C° 0 mm 3 mps 730 mmHg 21%
    20:00 +19°C° 0 mm 3 mps 730 mmHg 22%
    21:00 +18°C° 0 mm 3 mps 730 mmHg 23%
    22:00 +17°C° 0 mm 3 mps 730 mmHg 24%
    23:00 +17°C° 0 mm 3 mps 730 mmHg 24%

    Tomorrow, 23 October, Tuesday

    Time Temperature Precipitation Wind Pressure Humidity
    00:00 +17°C° 0 mm 3 mps 730 mmHg 24%
    01:00 +16°C° 0 mm 2 mps 730 mmHg 25%
    02:00 +16°C° 0 mm 2 mps 730 mmHg 25%
    03:00 +15°C° 0 mm 2 mps 730 mmHg 25%
    04:00 +15°C° 0 mm 2 mps 730 mmHg 26%
    05:00 +15°C° 0 mm 2 mps 730 mmHg 25%
    06:00 +16°C° 0 mm 2 mps 730 mmHg 24%
    07:00 +16°C° 0 mm 2 mps 731 mmHg 24%
    08:00 +18°C° 0 mm 2 mps 731 mmHg 21%
    09:00 +20°C° 0 mm 2 mps 731 mmHg 18%
    10:00 +23°C° 0 mm 2 mps 731 mmHg 16%
    11:00 +24°C° 0 mm 1 mps 731 mmHg 15%
    12:00 +25°C° 0 mm 1 mps 731 mmHg 14%
    13:00 +26°C° 0 mm 1 mps 730 mmHg 13%
    14:00 +25°C° 0 mm 1 mps 730 mmHg 14%
    15:00 +25°C° 0 mm 1 mps 730 mmHg 14%
    16:00 +25°C° 0 mm 1 mps 730 mmHg 15%
    17:00 +23°C° 0 mm 2 mps 730 mmHg 17%
    18:00 +21°C° 0 mm 2 mps 730 mmHg 18%
    19:00 +20°C° 0 mm 3 mps 730 mmHg 20%
    20:00 +19°C° 0 mm 3 mps 730 mmHg 20%
    21:00 +19°C° 0 mm 3 mps 730 mmHg 21%
    22:00 +19°C° 0 mm 3 mps 730 mmHg 21%
    23:00 +18°C° 0 mm 3 mps 729 mmHg 22%

    Day after tomorrow, 24 October, Wednesday

    Time Temperature Precipitation Wind Pressure Humidity
    00:00 +18°C° 0 mm 3 mps 729 mmHg 23%
    01:00 +18°C° 0 mm 3 mps 729 mmHg 24%
    02:00 +18°C° 0 mm 3 mps 729 mmHg 23%
    03:00 +18°C° 0 mm 3 mps 729 mmHg 23%
    04:00 +18°C° 0 mm 3 mps 729 mmHg 23%
    05:00 +18°C° 0 mm 3 mps 729 mmHg 23%
    06:00 +18°C° 0 mm 3 mps 729 mmHg 22%
    07:00 +19°C° 0 mm 3 mps 729 mmHg 21%
    08:00 +20°C° 0 mm 3 mps 729 mmHg 20%
    09:00 +22°C° 0 mm 3 mps 730 mmHg 18%
    10:00 +25°C° 0 mm 3 mps 730 mmHg 16%
    11:00 +26°C° 0 mm 3 mps 729 mmHg 15%
    12:00 +26°C° 0 mm 2 mps 729 mmHg 15%
    13:00 +27°C° 0 mm 2 mps 729 mmHg 14%
    14:00 +27°C° 0 mm 2 mps 728 mmHg 14%
    15:00 +26°C° 0 mm 1 mps 728 mmHg 15%
    16:00 +26°C° 0 mm 1 mps 728 mmHg 16%
    17:00 +25°C° 0 mm 1 mps 728 mmHg 17%
    18:00 +23°C° 0 mm 2 mps 728 mmHg 18%
    19:00 +21°C° 0 mm 2 mps 728 mmHg 20%
    20:00 +21°C° 0 mm 3 mps 729 mmHg 21%
    21:00 +20°C° 0 mm 3 mps 729 mmHg 22%
    22:00 +20°C° 0 mm 3 mps 729 mmHg 23%
    23:00 +19°C° 0 mm 3 mps 728 mmHg 24%

    25 October, Thursday

    Time Temperature Precipitation Wind Pressure Humidity
    00:00 +19°C° 0 mm 3 mps 728 mmHg 25%
    01:00 +18°C° 0 mm 3 mps 728 mmHg 26%
    02:00 +18°C° 0 mm 3 mps 728 mmHg 27%
    03:00 +18°C° 0 mm 3 mps 728 mmHg 27%
    04:00 +17°C° 0 mm 3 mps 728 mmHg 27%
    05:00 +18°C° 0 mm 3 mps 728 mmHg 27%
    06:00 +18°C° 0 mm 4 mps 728 mmHg 26%
    07:00 +18°C° 0 mm 4 mps 728 mmHg 26%
    08:00 +21°C° 0 mm 4 mps 728 mmHg 22%
    09:00 +23°C° 0 mm 4 mps 728 mmHg 18%
    10:00 +27°C° 0 mm 4 mps 728 mmHg 14%
    11:00 +28°C° 0 mm 4 mps 728 mmHg 13%
    12:00 +28°C° 0 mm 3 mps 728 mmHg 12%
    13:00 +29°C° 0 mm 3 mps 727 mmHg 10%
    14:00 +29°C° 0 mm 3 mps 727 mmHg 11%
    15:00 +28°C° 0 mm 2 mps 727 mmHg 11%
    16:00 +28°C° 0 mm 2 mps 727 mmHg 12%
    17:00 +27°C° 0 mm 3 mps 727 mmHg 12%
    18:00 +26°C° 0 mm 3 mps 727 mmHg 13%
    19:00 +24°C° 0 mm 3 mps 727 mmHg 14%
    20:00 +23°C° 0 mm 4 mps 727 mmHg 15%
    21:00 +23°C° 0 mm 4 mps 727 mmHg 15%
    22:00 +22°C° 0 mm 5 mps 727 mmHg 16%
    23:00 +22°C° 0 mm 5 mps 727 mmHg 16%

    26 October, Friday

    Time Temperature Precipitation Wind Pressure Humidity
    00:00 +22°C° 0 mm 5 mps 726 mmHg 17%
    01:00 +22°C° 0 mm 5 mps 726 mmHg 17%
    02:00 +22°C° 0 mm 5 mps 726 mmHg 17%
    03:00 +22°C° 0 mm 5 mps 726 mmHg 17%
    04:00 +21°C° 0 mm 5 mps 726 mmHg 18%
    05:00 +21°C° 0 mm 4 mps 726 mmHg 17%
    06:00 +22°C° 0 mm 4 mps 726 mmHg 17%
    07:00 +22°C° 0 mm 4 mps 726 mmHg 17%
    08:00 +25°C° 0 mm 5 mps 727 mmHg 15%
    09:00 +28°C° 0 mm 6 mps 727 mmHg 14%
    10:00 +30°C° 0 mm 7 mps 727 mmHg 12%
    11:00 +32°C° 0 mm 7 mps 726 mmHg 12%
    12:00 +33°C° 0 mm 8 mps 726 mmHg 11%
    13:00 +34°C° 0 mm 8 mps 726 mmHg 11%
    14:00 +34°C° 0 mm 7 mps 725 mmHg 11%
    15:00 +33°C° 0 mm 6 mps 725 mmHg 12%
    16:00 +33°C° 0 mm 5 mps 725 mmHg 13%
    17:00 +30°C° 0 mm 4 mps 725 mmHg 14%
    18:00 +28°C° 0 mm 4 mps 725 mmHg 16%
    19:00 +27°C° 0 mm 3 mps 725 mmHg 17%
    20:00 +26°C° 0 mm 4 mps 725 mmHg 18%
    21:00 +26°C° 0 mm 5 mps 725 mmHg 19%
    22:00 +25°C° 0 mm 5 mps 725 mmHg 20%
    23:00 +25°C° 0 mm 5 mps 725 mmHg 20%

    27 October, Saturday

    Time Temperature Precipitation Wind Pressure Humidity
    00:00 +25°C° 0 mm 5 mps 724 mmHg 20%
    01:00 +23°C° 0 mm 5 mps 724 mmHg 20%
    02:00 +23°C° 0 mm 6 mps 724 mmHg 20%
    03:00 +23°C° 0 mm 6 mps 724 mmHg 20%
    04:00 +24°C° 0 mm 7 mps 724 mmHg 20%
    05:00 +24°C° 0 mm 7 mps 724 mmHg 19%
    06:00 +24°C° 0 mm 7 mps 724 mmHg 19%
    07:00 +26°C° 0 mm 7 mps 724 mmHg 18%
    08:00 +28°C° 0 mm 9 mps 725 mmHg 17%
    09:00 +31°C° 0 mm 11 mps 725 mmHg 16%
    10:00 +33°C° 0 mm 13 mps 726 mmHg 14%
    11:00 +32°C° 0 mm 12 mps 726 mmHg 17%
    12:00 +31°C° 0 mm 10 mps 726 mmHg 20%
    13:00 +31°C° 0 mm 9 mps 726 mmHg 23%
    14:00 +28°C° 0.6 mm 8 mps 727 mmHg 31%
    15:00 +26°C° 0.6 mm 6 mps 728 mmHg 38%
    16:00 +25°C° 0.6 mm 5 mps 729 mmHg 46%
    17:00 +23°C° 0.5 mm 5 mps 730 mmHg 50%
    18:00 +22°C° 0.5 mm 5 mps 731 mmHg 53%
    19:00 +21°C° 0.5 mm 5 mps 732 mmHg 57%
    20:00 +20°C° 0.4 mm 5 mps 732 mmHg 62%
    21:00 +19°C° 0.4 mm 6 mps 733 mmHg 66%
    22:00 +17°C° 0.4 mm 6 mps 734 mmHg 71%
    23:00 +17°C° 1.1 mm 6 mps 734 mmHg 68%

    28 October, Sunday

    Time Temperature Precipitation Wind Pressure Humidity
    00:00 +16°C° 1.1 mm 6 mps 735 mmHg 65%
    01:00 +16°C° 1.1 mm 6 mps 736 mmHg 63%
    02:00 +15°C° 0.1 mm 6 mps 736 mmHg 60%
    03:00 +15°C° 0.1 mm 5 mps 737 mmHg 57%
    04:00 +14°C° 0.1 mm 5 mps 738 mmHg 53%
    05:00 +14°C° 0 mm 4 mps 738 mmHg 54%
    06:00 +14°C° 0 mm 4 mps 739 mmHg 54%
    07:00 +13°C° 0 mm 3 mps 739 mmHg 54%
    08:00 +14°C° 0 mm 4 mps 740 mmHg 49%
    09:00 +14°C° 0 mm 5 mps 740 mmHg 44%
    10:00 +15°C° 0 mm 5 mps 741 mmHg 39%
    11:00 +15°C° 0 mm 5 mps 741 mmHg 36%
    12:00 +16°C° 0 mm 5 mps 741 mmHg 32%
    13:00 +16°C° 0 mm 5 mps 741 mmHg 29%
    14:00 +15°C° 0 mm 5 mps 741 mmHg 29%
    15:00 +15°C° 0 mm 5 mps 741 mmHg 28%
    16:00 +14°C° 0 mm 5 mps 741 mmHg 28%
    17:00 +14°C° 0 mm 6 mps 741 mmHg 30%
    18:00 +13°C° 0 mm 6 mps 741 mmHg 32%
    19:00 +11°C° 0 mm 6 mps 742 mmHg 34%
    20:00 +11°C° 0 mm 6 mps 741 mmHg 36%
    21:00 +10°C° 0 mm 6 mps 741 mmHg 38%
    22:00 +10°C° 0 mm 7 mps 741 mmHg 40%
    23:00 +10°C° 0 mm 7 mps 741 mmHg 42%
    Show more